Orlando International, FL

7:42 PM EDT on April 29, 2017 (GMT -0400)
Orlando International

Weather History for KMCO - February, 2013

Change the Weather History Date:

Monday, February 25, 2013

  Actual Average Record
Temperature  
Mean Temperature 75 °F 64 °F  
Max Temperature 88 °F 75 °F 90 °F (1962)
Min Temperature 62 °F 54 °F 30 °F (1989)
Degree Days  
Heating Degree Days 0 3  
Month to date heating degree days 86 106  
Since 1 July heating degree days 308 490  
Cooling Degree Days 10 3  
Month to date cooling degree days 91 52  
Year to date cooling degree days 192 97  
Growing Degree Days 25 (Base 50)    
Moisture  
Dew Point 65 °F    
Average Humidity 70    
Maximum Humidity 100    
Minimum Humidity 40    
Precipitation  
Precipitation 0.12 in 0.09 in 2.00 in (1980)
Month to date precipitation 0.62 2.11  
Year to date precipitation 0.86 4.46  
Sea Level Pressure  
Sea Level Pressure 29.87 in    
Wind  
Wind Speed 6 mph (SSE)    
Max Wind Speed 20 mph    
Max Gust Speed 25 mph    
Visibility 9 miles    
Events Fog , Rain    
T = Trace of Precipitation, MM = Missing Value Source: NWS Daily Summary

Daily Weather History Graph

Daily Weather History Graph

Search for Another Location

Airport or City:

Trip Planner

Search our weather history database for the weather conditions in past years. The results will help you decide how hot, cold, wet, or windy it might be!

Date:

Astronomy

Feb. 25, 2013 Rise Set
Actual Time 6:53 AM EST 6:22 PM EST
Civil Twilight 6:30 AM EST 6:46 PM EST
Nautical Twilight 6:02 AM EST 7:14 PM EST
Astronomical Twilight 5:35 AM EST 7:41 PM EST
Moon 6:29 PM EST (2/25) 6:26 AM EST (2/25)
Length of Visible Light 12h 16m
Length of Day
11h 29m
Full, 100% of the Moon is Illuminated
Feb 25
Full
Feb 25
Full
Mar 4
Last Quarter
Mar 11
New
Mar 19
First Quarter

Hourly Weather History & Observations

Time (EST) Temp. Heat Index Dew Point Humidity Pressure Visibility Wind Dir Wind Speed Gust Speed Precip Events Conditions
12:02 AM 66.2 °F - 64.4 °F 94% 29.96 in 10.0 mi ENE 3.5 mph - N/A   Overcast
12:33 AM 64.4 °F - 64.4 °F 100% 29.94 in 10.0 mi East 3.5 mph - N/A   Mostly Cloudy
12:53 AM 64.9 °F - 64.0 °F 97% 29.93 in 10.0 mi NE 4.6 mph - N/A   Mostly Cloudy
1:53 AM 64.9 °F - 64.0 °F 97% 29.92 in 10.0 mi Calm Calm - N/A   Mostly Cloudy
2:53 AM 64.0 °F - 64.0 °F 100% 29.90 in 10.0 mi Calm Calm - N/A   Overcast
3:53 AM 63.0 °F - 63.0 °F 100% 29.87 in 9.0 mi Calm Calm - N/A Fog Patches of Fog
4:53 AM 63.0 °F - 63.0 °F 100% 29.87 in 8.0 mi Calm Calm - N/A Fog Patches of Fog
5:53 AM 63.0 °F - 63.0 °F 100% 29.88 in 9.0 mi Calm Calm - N/A Fog Patches of Fog
6:53 AM 63.0 °F - 63.0 °F 100% 29.88 in 7.0 mi Calm Calm - N/A Fog Patches of Fog
7:53 AM 64.9 °F - 64.9 °F 100% 29.90 in 8.0 mi Calm Calm - N/A   Partly Cloudy
8:50 AM 69.8 °F - 69.8 °F 100% 29.91 in 10.0 mi South 4.6 mph - N/A   Scattered Clouds
8:53 AM 71.1 °F - 69.1 °F 93% 29.91 in 10.0 mi South 5.8 mph - N/A   Scattered Clouds
9:24 AM 73.4 °F - 69.8 °F 88% 29.92 in 7.0 mi South 6.9 mph - N/A   Mostly Cloudy
9:45 AM 75.2 °F - 69.8 °F 83% 29.91 in 7.0 mi South 8.1 mph - N/A   Mostly Cloudy
9:53 AM 75.9 °F - 70.0 °F 82% 29.91 in 7.0 mi South 6.9 mph - N/A   Mostly Cloudy
10:53 AM 80.1 °F 82.1 °F 66.0 °F 62% 29.89 in 10.0 mi SSW 10.4 mph - N/A   Mostly Cloudy
11:53 AM 82.9 °F 84.4 °F 64.0 °F 53% 29.88 in 10.0 mi SSW 13.8 mph - N/A   Mostly Cloudy
12:53 PM 82.9 °F 84.0 °F 63.0 °F 51% 29.86 in 10.0 mi SW 9.2 mph - N/A   Mostly Cloudy
1:53 PM 84.0 °F 84.5 °F 62.1 °F 47% 29.83 in 10.0 mi SSW 12.7 mph - N/A   Overcast
2:53 PM 87.1 °F 87.0 °F 61.0 °F 41% 29.81 in 10.0 mi SSW 15.0 mph - N/A   Mostly Cloudy
3:53 PM 84.9 °F 84.8 °F 60.1 °F 43% 29.80 in 10.0 mi SSW 9.2 mph - N/A   Mostly Cloudy
4:53 PM 82.9 °F 84.4 °F 64.0 °F 53% 29.78 in 10.0 mi South 10.4 mph - N/A   Mostly Cloudy
5:53 PM 71.1 °F - 68.0 °F 90% 29.81 in 10.0 mi NNW 8.1 mph - 0.12 in Rain Light Rain
6:53 PM 72.0 °F - 69.1 °F 91% 29.81 in 10.0 mi East 3.5 mph - 0.00 in   Mostly Cloudy
7:53 PM 70.0 °F - 68.0 °F 93% 29.83 in 10.0 mi East 5.8 mph - N/A   Overcast
8:53 PM 69.1 °F - 68.0 °F 96% 29.83 in 10.0 mi ESE 4.6 mph - N/A   Mostly Cloudy
9:53 PM 69.1 °F - 66.9 °F 93% 29.83 in 10.0 mi SE 5.8 mph - N/A   Mostly Cloudy
10:53 PM 69.1 °F - 66.9 °F 93% 29.81 in 10.0 mi SE 3.5 mph - N/A   Mostly Cloudy
11:53 PM 69.1 °F - 66.9 °F 93% 29.82 in 10.0 mi South 6.9 mph - N/A   Mostly Cloudy